Location: Rowland
(34.5359°N, 79.2929°W)
Time: 15:35:32
(UTC+00:00)

SR - Pass Details

Date: 08 October 2022
Orbit: 577 x 875 km, 66.7° (Epoch: 28 November)

Event Time Altitude Azimuth Distance (km) Brightness Sun altitude
Rises 02:29:19 0° 266° (W) 3,451 ? -44.1°
Reaches altitude 10° 02:34:15 10° 302° (WNW) 2,527 ? -45.0°
Maximum altitude 02:35:38 11° 316° (NW) 2,470 ? -45.2°
Drops below altitude 10° 02:37:00 10° 330° (NNW) 2,522 ? -45.4°
Enters shadow 02:38:27 - 343° (NNW) 2,687 ? -45.7°
Sets 02:41:57 0° 6° (N) 3,429 - -46.3°
